Regional Weather Roundup
Issued by NWS Grand Forks, ND

Home | Current Version | Previous Version | Graphics & Text | Print | Product List | Glossary On
Versions: 1 2 3 4 5 6 7 8 9 10 11 12 13 14 15 16 17 18 19 20 21 22 23 24 25 26 27 28 29 30 31 32 33 34 35 36 37 38 39 40 41 42 43 44 45 46 47 48 49 50
000
ASUS43 KFGF 021710
RWRFGF
PRAIRIE TO PINES  WEATHER ROUNDUP
NATIONAL WEATHER SERVICE EASTERN NORTH DAKOTA/GRAND FORKS ND
1100 AM CST FRI DEC 02 2016

 **SATELLITE DATA USED TO AUGMENT SKY COVER AT AUTOMATED STATIONS**
 *****  WEATHER ACROSS EASTERN NORTH DAKOTA  *****

CITY           SKY/WX    TMP DP  RH WIND       PRES   REMARKS
GRAND FORKS    CLOUDY    31  22  69 NW8       30.26S WCI  23
GRAND FRKS AFB CLOUDY    31  23  72 N5        30.26R
GRAND FRKS NWS   N/A     30 N/A N/A N9          N/A  WCI  22
DEVILS LAKE    CLOUDY    30  21  69 NW5       30.24S
FARGO          CLOUDY    29  21  72 N9        30.27R WCI  20
WAHPETON ARPT  CLOUDY    28  21  74 N9        30.28R WCI  20
$$

 ***** WEATHER ACROSS CENTRAL AND WESTERN NORTH DAKOTA  *****

CITY           SKY/WX    TMP DP  RH WIND       PRES   REMARKS
BISMARCK       CLOUDY    25  18  74 E7        30.27R WCI  17
MINOT          FLURRIES  27  22  81 SE6       30.21F WCI  20
JAMESTOWN      CLOUDY    27  20  75 N5        30.25R WCI  22
MINOT AFB      CLOUDY    26  22  84 SE6       30.21S WCI  19
GARRISON         N/A     27  22  81 S10       30.22S WCI  17
WILLISTON      CLOUDY    28  23  81 SW8       30.19R WCI  20
DICKINSON      CLOUDY    25  22  88 S8        30.16R WCI  16
HETTINGER      CLOUDY    27  23  85 S5        30.19S WCI  22
$$

 *****  OTHER AIRPORT OBSERVATIONS IN OUR AREA  *****

CITY           SKY/WX    TMP DP  RH WIND       PRES   REMARKS
WALHALLA         N/A     27  27 100 NW3       30.26S
GRAFTON AIRPOR CLOUDY    30  27  86 CALM      30.27F
VALLEY CITY AR LGT RAIN  27  23  86 N5        30.28R WCI  21
CANDO          CLOUDY    28  27  93 W6        30.26R WCI  22
CAVALIER APRT    N/A     28  25  86 NW3       30.26S
GWINNER        CLOUDY    28  23  80 NW5       30.28R WCI  23
SHEYENNE NWR     N/A     28  20  73 N5        29.95S WCI  23
ROLLA          CLOUDY    27  27 100 CALM      30.22S
 ***** THE ABOVE OBSERVATIONS ARE NON NWS ARE NOT QUALITY
       CONTROLLED AND MAY MIS-REPORT RAIN FOR SNOW...
$$

  *****  WEATHER ACROSS NORTHERN MINNESOTA  *****

CITY           SKY/WX    TMP DP  RH WIND       PRES   REMARKS
FLAG ISLAND    CLOUDY    21  19  93 NW7       30.21S WCI  13
WARROAD        CLOUDY    25  19  80 NW8       30.23S WCI  16
ROSEAU         PTSUNNY   27  21  80 W7        30.23S WCI  19
HALLOCK        MOSUNNY   28  25  86 NW7       30.25S WCI  21
THF RVR FALLS  CLOUDY    27  22  81 NW9       30.25R WCI  18
BAUDETTE       CLOUDY    23  21  92 W8        30.21R WCI  14
WASKISH        CLOUDY    21  19  93 CALM      30.22S
CROOKSTON      CLOUDY    28  23  80 N10       30.26S WCI  19
GREENBUSH NDAW   N/A     25  21  86 W3          N/A
$$
  *****  WEATHER ACROSS CENTRAL AND WEST MINNESOTA  *****

CITY           SKY/WX    TMP DP  RH WIND       PRES   REMARKS
FOSSTON        CLOUDY    23  18  80 W7        30.24S WCI  15
BEMIDJI        CLOUDY    23  19  86 W8        30.21F WCI  14
PARK RAPIDS    CLOUDY    24  18  77 N3        30.21S
ELBOW LAKE     CLOUDY    26  21  82 N8        30.26R WCI  17
WADENA         CLOUDY    25  19  80 NW8       30.22S WCI  16
DETROIT LAKES  CLOUDY    27  23  86 NW9       30.24R WCI  17
MOORHEAD       CLOUDY    27  21  80 N9        30.28S WCI  17
FERGUS FALLS   CLOUDY    27  21  80 NW7       30.30R WCI  19
MORRIS MN      CLOUDY    28  21  74 NW7       30.25R WCI  21
STAPLES        CLOUDY    25  21  86 N8        30.22S WCI  16
$$
  *****  WEATHER ELSEWHERE ACROSS MINNESOTA  *****

CITY           SKY/WX    TMP DP  RH WIND       PRES   REMARKS
DULUTH         CLOUDY    27  22  81 N9        30.16R WCI  18
INTRNTL FALLS  CLOUDY    26  22  84 W6        30.19R WCI  19
ELY            CLOUDY    23  21  93 W5        30.17R WCI  17
CLOQUET        CLOUDY    27  21  80 W8        30.18R WCI  18
WHEATON        NOT AVBL
BRAINERD       CLOUDY    26  21  81 W9        30.22S WCI  17
HIBBING        CLOUDY    25  21  85 NW8       30.18R WCI  16
ALEXANDRIA     CLOUDY    26  21  81 NW7       30.23S WCI  18
SAINT CLOUD    CLOUDY    29  23  78 N7        30.23R WCI  22
MINNEAPOLIS    CLOUDY    33  23  66 NW8       30.23R
$$

  *****  WEATHER ACROSS SOUTH DAKOTA  *****

CITY           SKY/WX    TMP DP  RH WIND       PRES   REMARKS
SIOUX FALLS    CLOUDY    33  26  75 N6        30.26R
BROOKINGS      CLOUDY    29  24  82 NW9       30.24R WCI  20
WATERTOWN      CLOUDY    25  20  81 N8        30.23R WCI  16
HURON          CLOUDY    30  25  81 N9        30.28R WCI  22
SISSETON         N/A     28  21  75 N9        30.27R WCI  19
ABERDEEN       CLOUDY    29  20  69 NW6       30.28R WCI  23
MITCHELL       CLOUDY    32  28  85 N6        30.29R
PIERRE         CLOUDY    30  27  88 E5        30.26R
MOBRIDGE       CLOUDY    29  23  78 E6        30.23R WCI  23
RAPID CITY     CLOUDY    34  26  72 N7        30.19R
$$

  *****  SOME WEATHER IN NEARBY STATES *****

CITY           SKY/WX    TMP DP  RH WIND       PRES   REMARKS
GLASGOW MT     CLOUDY    27  25  92 S6        30.16S FOG     WCI  20
GREAT FALLS MT SUNNY     26  20  77 SW15      30.13S WCI  14
CHEYENNE WY    CLOUDY    28  14  55 NE7       30.16R WCI  21
SCOTTSBLUFF NE SUNNY     33  23  66 W8        30.23R
OMAHA NE       MOSUNNY   39  30  70 N8        30.28S
DES MOINES IA  CLOUDY    39  32  76 NW7       30.27R
DAVENPORT IA   CLOUDY    39  32  76 NW10      30.22S
CHICAGO IL     CLOUDY    38  30  73 W10       30.15S
EAU CLAIRE WI  CLOUDY    32  22  66 W7        30.20R
LA CROSSE WI   CLOUDY    35  22  58 NW8       30.22R
$$

  *****  SOME NATIONAL WEATHER *****

CITY           SKY/WX    TMP DP  RH WIND       PRES   REMARKS
LA GUARDIA NY  MOSUNNY   51  30  44 W20G29    29.88F
RALEIGH NC     MOSUNNY   54  27  35 NW8       30.14F
ATLANTA GA     MOSUNNY   55  27  34 N12G17    30.25F
NEW ORLEANS LA CLOUDY    63  44  50 E14       30.23S
OKLAHOMA CITY  PTSUNNY   48  29  47 N6        30.19S
ALBUQUERQUE NM MOSUNNY   43  14  31 E22       30.01F
SALT LAKE CITY MOSUNNY   31  23  72 N7        30.24R WCI  24
LOS ANGELES CA MOSUNNY   62  16  16 N10       30.02R
BOISE ID       SUNNY     28  22  78 S6        30.39R WCI  22
SEATTLE WA     LGT RAIN  44  42  93 S7        30.28S
$$

*** WEATHER ACROSS MANITOBA...SASKATCHEWAN AND ONTARIO ***
                ***ONTARIO***

CITY           SKY/WX    TMP DP  RH WIND       PRES   REMARKS
GERALDTON      NOT AVBL
THUNDER BAY    PTSUNNY   28  23  80 W13       30.13R WCI  18
SIOUX LOOKOUT  NOT AVBL
TORONTO        PTSUNNY   41  30  65 W28G35    29.85S
BIG TROUT LK   LGT SNOW  21  19  93 NW12      30.19S WCI   9
PICKLE LAKE    FLURRIES  18  16  93 NW5       30.14S WCI  11
DRYDEN         CLOUDY    21  19  93 W6        30.16S WCI  14
KENORA         NOT AVBL
$$
                *** MANITOBA***

CITY           SKY/WX    TMP DP  RH WIND       PRES   REMARKS
BRANDON        FLURRIES  28  25  86 W7        30.21S WCI  21
DAUPHIN        CLOUDY    27  25  93 CALM      30.21R FOG
ISLAND LAKE    FLURRIES  16  14  93 NE3       30.25S
PILOT MOUND      N/A     28  25  86 SW3         N/A
THE PAS        CLOUDY    21  18  86 SE3       30.19F
THOMPSON       LGT SNOW  16  14  93 S3        30.23R
WINNIPEG       PTSUNNY   27  21  80 W2        30.25S
LYNN LAKE      CLOUDY     9   7  92 SE3       30.14R
CHURCHILL      LGT SNOW  10   9  92 SW8       30.24S FOG     WCI  -1
GILLAM         LGT SNOW  12  10  92 S3        30.26S VSB 5/8
$$
                ***SASKATCHEWAN***

CITY           SKY/WX    TMP DP  RH WIND       PRES   REMARKS
ESTEVAN        FLURRIES  28  25  86 S10       30.18R WCI  19
KINDERSLEY     CLOUDY    23  21  93 SW8       30.07F WCI  14
LLOYDMINSTER   FOG       21  21 100 S12       30.01F VSB 1/2 WCI   9
PRINCE ALBERT  FRZ DRZL  25  23  93 CALM      30.13S FOG
REGINA         FRZ DRZL  27  25  93 SW6       30.13S VSB 1   WCI  20
YORKTON        CLOUDY    28  25  86 S6        30.15S WCI  22
N. BATTLEFORD  CLOUDY    23  23 100 S10       30.11F WCI  12
LA RONGE       FRZ DRZL  25  23  93 S7        30.10S WCI  17
SASKATOON      CLOUDY    27  23  86 SW8       30.14R WCI  18
SWIFT CURRENT  CLOUDY    21  21 100 W12       30.06S WCI   9
$$
NOTE: THESE ARE AUTOMATED STATIONS WITH LIMITED QUALITY CONTROL
      "FAIR" INDICATES FEW OR NO CLOUDS BELOW 12,000 FEET WITH NO
      SIGNIFICANT WEATHER AND/OR OBSTRUCTIONS TO VISIBILITY.
      SKY/WX - SKY CONDITION AND SIGNIFICANT WEATHER.
      TMP - AIR TEMPERATURE.    DP   - DEWPOINT TEMPERATURE.
      RH  - RELATIVE HUMIDITY.  PRES - PRESSURE.
      HX  - HEAT INDEX.         WCI  - WIND CHILL INDEX.
$



USA.gov is the U.S. government's official web portal to all federal, state and local government web resources and services.